Overview Statistics Trail Chart Weather Telemetry Raw packets
 

This is the latest recevied weather packets stored in our database for station/object OE-11190. If no packets are shown the sender has not sent any weather packets the latest 10 day(s).

<< 5 6 7 8 9 10 11 >>
Time Temp. Humidity Pressure Rain* Wind** Luminosity Snow
1788295282 21.67° C 52% 1020 hPa 0 mm - 0 W/m² -
1788294908 21.67° C 54% 1020 hPa 0 mm - 0 W/m² -
1788294308 21.67° C 54% 1019.9 hPa 0 mm - 0 W/m² -
1788293482 21.67° C 54% 1019.9 hPa 0 mm - 0 W/m² -
1788293108 21.67° C 52% 1019.8 hPa 0 mm - 0 W/m² -
1788291682 21.67° C 51% 1019.7 hPa 0 mm - 0 W/m² -
1788291308 21.67° C 50% 1019.8 hPa 0 mm - 0 W/m² -
1788290708 21.67° C 54% 1019.6 hPa 0 mm - 0 W/m² -
1788289881 21.67° C 54% 1019.6 hPa 0 mm - 0 W/m² -
1788289507 21.67° C 55% 1019.6 hPa 0 mm - 0 W/m² -
1788288908 22.22° C 54% 1019.3 hPa 0 mm - 0 W/m² -
1788288081 22.78° C 52% 1019.3 hPa 0 mm - 0 W/m² -
1788287708 22.78° C 52% 1019.2 hPa 0 mm - 0 W/m² -
1788287108 22.78° C 50% 1019 hPa 0 mm - 0 W/m² -
1788286281 23.33° C 48% 1018.9 hPa 0 mm - 0 W/m² -
1788285908 23.89° C 47% 1018.8 hPa 0 mm - 0 W/m² -
1788285308 24.44° C 42% 1018.6 hPa 0 mm - 0 W/m² -
1788284481 25.56° C 36% 1018.5 hPa 0 mm - 8 W/m² -
1788284108 25.56° C 35% 1018.5 hPa 0 mm - 8 W/m² -
1788283508 25.56° C 34% 1018.4 hPa 0 mm - 15 W/m² -
1788282681 26.11° C 33% 1018.3 hPa 0 mm - 38 W/m² -
1788282308 26.67° C 32% 1018.3 hPa 0 mm - 61 W/m² -
1788281721 26.67° C 31% 1018.3 hPa 0 mm - 114 W/m² -
1788280881 27.22° C 31% 1018.2 hPa 0 mm - 167 W/m² -
1788280508 27.22° C 31% 1018.1 hPa 0 mm - 190 W/m² -

* Rain latest hour (hover to see other rain measurements)
** Current wind speed in m/s (hover to see current wind gust speed)